Weather History for KDIJ - April, 2014

Change the Weather History Date:

Tuesday, April 8, 2014

  Actual Average (KRXE) Record (KRXE)
Temperature  
Mean Temperature 42 °F 42 °F  
Max Temperature 52 °F 54 °F 68 °F (2014)
Min Temperature 32 °F 30 °F 21 °F (2000)
Degree Days  
Heating Degree Days 23 23  
Month to date heating degree days 192  
Since 1 July heating degree days 7121  
Cooling Degree Days 0 0  
Month to date cooling degree days 0  
Year to date cooling degree days 0  
Moisture  
Dew Point 29 °F    
Average Humidity 60    
Maximum Humidity 73    
Minimum Humidity 45    
Precipitation  
Precipitation 0.00 in 0.04 in 0.56 in (1978)
Month to date precipitation 0.35  
Year to date precipitation 2.98  
Sea Level Pressure  
Sea Level Pressure 30.19 in    
Wind  
Wind Speed 9 mph (SSE)    
Max Wind Speed 13 mph    
Max Gust Speed -    
Visibility 9 miles    
Events      
T = Trace of Precipitation, MM = Missing Value Source: NWS Daily Summary

Daily Weather History Graph

Daily Weather History Graph

Search for Another Location

Airport or City:

Trip Planner

Search our weather history database for the weather conditions in past years. The results will help you decide how hot, cold, wet, or windy it might be!

Date:

Astronomy

Apr. 08, 2014 Rise Set
Actual Time 6:53 AM MDT 7:59 PM MDT
Civil Twilight 6:24 AM MDT 8:29 PM MDT
Nautical Twilight 5:48 AM MDT 9:04 PM MDT
Astronomical Twilight 5:11 AM MDT 9:41 PM MDT
Moon 1:45 PM MDT (4/8) 3:19 AM MDT (4/8)
Length of Visible Light 14h 05m
Length of Day
13h 06m
Waxing Gibbous, 63% of the Moon is Illuminated
Apr 8
Waxing Gibbous
Apr 15
Full
Apr 22
Last Quarter
Apr 29
New
May 6
First Quarter

Hourly Weather History & Observations

Time (MDT) Temp. Windchill Dew Point Humidity Pressure Visibility Wind Dir Wind Speed Gust Speed Precip Events Conditions
12:56 AM 34.9 °F 28.3 °F 27.1 °F 73% 30.26 in 10.0 mi East 8.1 mph - N/A   Clear
1:56 AM 34.0 °F 27.2 °F 26.1 °F 73% 30.27 in 10.0 mi East 8.1 mph - N/A   Clear
2:56 AM 32.9 °F 24.7 °F 25.2 °F 73% 30.26 in 10.0 mi SE 10.4 mph - N/A   Clear
3:56 AM 34.0 °F 26.6 °F 25.2 °F 70% 30.25 in 10.0 mi SE 9.2 mph - N/A   Clear
4:56 AM 32.9 °F 24.7 °F 24.1 °F 70% 30.25 in 10.0 mi SSE 10.4 mph - N/A   Clear
5:56 AM 34.0 °F 29.8 °F 25.2 °F 70% 30.24 in 10.0 mi South 4.6 mph - N/A   Clear
6:56 AM 32.9 °F 25.3 °F 25.2 °F 73% 30.23 in 9.0 mi SSE 9.2 mph - N/A   Clear
7:56 AM 34.0 °F 26.6 °F 25.2 °F 70% 30.27 in 9.0 mi SSE 9.2 mph - N/A   Clear
8:56 AM 39.9 °F 33.4 °F 29.1 °F 65% 30.26 in 9.0 mi South 10.4 mph - N/A   Clear
9:56 AM 43.9 °F 38.3 °F 30.0 °F 58% 30.25 in 9.0 mi South 10.4 mph - N/A   Clear
10:56 AM 43.9 °F 38.8 °F 30.0 °F 58% 30.26 in 7.0 mi SSE 9.2 mph - N/A   Clear
11:56 AM 46.4 °F 41.9 °F 28.4 °F 50% 30.33 in 10.0 mi SSE 9.2 mph - N/A   Clear
12:56 PM 47.8 °F - 30.0 °F 50% 30.22 in 9.0 mi South 9.2 mph - N/A   Clear
1:56 PM 48.9 °F - 30.0 °F 48% 30.21 in 9.0 mi South 11.5 mph - N/A   Clear
2:56 PM 48.9 °F - 31.1 °F 50% 30.19 in 9.0 mi SSE 9.2 mph - N/A   Clear
3:56 PM 50.0 °F - 32.0 °F 50% 30.15 in 9.0 mi SSE 10.4 mph - N/A   Clear
4:56 PM 52.0 °F - 31.1 °F 45% 30.12 in 8.0 mi South 12.7 mph - N/A   Clear
5:56 PM 50.9 °F - 32.0 °F 48% 30.11 in 9.0 mi South 9.2 mph - N/A   Clear
6:56 PM 50.0 °F - 32.0 °F 50% 30.10 in 9.0 mi SSE 5.8 mph - N/A   Clear
7:56 PM 46.9 °F - 31.1 °F 54% 30.10 in 9.0 mi South 11.5 mph - N/A   Partly Cloudy
8:56 PM 43.0 °F 37.2 °F 30.0 °F 60% 30.09 in 10.0 mi SE 10.4 mph - N/A   Clear
9:56 PM 43.0 °F 37.2 °F 30.0 °F 60% 30.07 in 10.0 mi SE 10.4 mph - N/A   Clear
10:56 PM 41.9 °F 36.3 °F 29.1 °F 61% 30.07 in 10.0 mi SSE 9.2 mph - N/A   Clear
11:56 PM 41.9 °F 35.9 °F 29.1 °F 61% 30.05 in 10.0 mi SE 10.4 mph - N/A   Clear